User: anonymous   Login
Location: ?????
(32.7281°N, 34.9563°E)
Time: 14:30:27
(UTC+00:00)
Language:

Cosmos 2297 Rocket - Orbit

View from above orbital plane
View from above orbital plane
View from above satellite
View from above satellite

Ground track
Ground track

The orbit data is extracted from the following two-line orbital elements,

1 23405U 94077B   21019.62893610  .00000211  00000-0  13324-3 0  9999
2 23405  70.9839 335.9275 0001886 189.6334 170.4753 14.15232596350938
Epoch (UTC): 19 January 2021 15:05:40
Eccentricity: 0.0001886
inclination: 70.9839°
perigee height: 840 km
apogee height: 843 km
right ascension of ascending node: 335.9275°
argument of perigee: 189.6334°
revolutions per day: 14.15232596
mean anomaly at epoch: 170.4753°
orbit number at epoch: 35093

The dashed part of the orbit path shows where the satellite is in the earth's shadow,  

DLR